Location: Newark
(44.1667°N, 8.2500°E)
Time: 23:46:24
(UTC+00:00)

Transit 4A - Pass Details

Date: 12 December 2019
Orbit: 872 x 973 km, 66.8° (Epoch: 28 January)

Event Time Altitude Azimuth Distance (km) Brightness Sun altitude
Rises 18:45:02 0° 281° (WNW) 3,574 12.0 -30.7°
Reaches altitude 10° 18:49:30 10° 312° (NW) 2,607 10.7 -31.5°
Maximum altitude 18:51:47 12° 334° (NNW) 2,441 10.3 -31.9°
Enters shadow 18:53:44 11° 354° (N) 2,544 10.2 -32.3°
